| time (UTC) | temp C | wind direction | speed KPH | gust KPH | rain 1hr cm | rain 24hr cm | rain mn cm | humidity % | barometer mb |
| 20260502224507 | 17 | 111 | 3.2 | 6.4 | 0.00 | 0.00 | 0.00 | 86 | 1016.2 |
| 20260502223002 | 17 | 108 | 0.0 | 3.2 | 0.00 | 0.00 | 0.00 | 86 | 1016.4 |
| 20260502221502 | 17 | 108 | 0.0 | 6.4 | 0.00 | 0.00 | 0.00 | 86 | 1016.3 |
| 20260502220105 | 17 | 109 | 1.6 | 4.8 | 0.00 | 0.00 | 0.00 | 86 | 1016.5 |
| 20260502214607 | 17 | 109 | 3.2 | 9.7 | 0.00 | 0.00 | 0.00 | 86 | 1016.5 |
| 20260502213057 | 17 | 115 | 1.6 | 11.3 | 0.00 | 0.00 | 0.00 | 86 | 1016.7 |
| 20260502211559 | 17 | 121 | 3.2 | 9.7 | 0.00 | 0.00 | 0.00 | 86 | 1016.8 |
| 20260502204555 | 17 | 115 | 3.2 | 9.7 | 0.00 | 0.00 | 0.00 | 86 | 1016.7 |
| 20260502203059 | 17 | 111 | 4.8 | 9.7 | 0.00 | 0.00 | 0.00 | 85 | 1016.6 |
| 20260502201553 | 17 | 111 | 3.2 | 9.7 | 0.00 | 0.00 | 0.00 | 84 | 1016.4 |
| 20260502200053 | 17 | 113 | 4.8 | 12.9 | 0.00 | 0.00 | 0.00 | 84 | 1016.2 |
| 20260502194554 | 17 | 120 | 4.8 | 11.3 | 0.00 | 0.00 | 0.00 | 84 | 1016.0 |
| 20260502193052 | 17 | 117 | 8.0 | 14.5 | 0.00 | 0.00 | 0.00 | 84 | 1015.9 |
| 20260502191551 | 18 | 115 | 6.4 | 16.1 | 0.00 | 0.00 | 0.00 | 83 | 1015.9 |
| 20260502190052 | 18 | 113 | 8.0 | 14.5 | 0.00 | 0.00 | 0.00 | 82 | 1015.8 |
| 20260502184549 | 18 | 119 | 11.3 | 20.9 | 0.00 | 0.00 | 0.00 | 81 | 1015.6 |
| 20260502183049 | 18 | 107 | 9.7 | 19.3 | 0.00 | 0.00 | 0.00 | 81 | 1015.7 |
| 20260502181548 | 19 | 120 | 9.7 | 24.1 | 0.00 | 0.00 | 0.00 | 79 | 1015.7 |
| 20260502163041 | 20 | 107 | 8.0 | 16.1 | 0.00 | 0.00 | 0.00 | 72 | 1016.5 |
| 20260502161540 | 21 | 124 | 9.7 | 20.9 | 0.00 | 0.00 | 0.00 | 71 | 1016.3 |
| 20260502151532 | 21 | 86 | 9.7 | 16.1 | 0.00 | 0.00 | 0.00 | 71 | 1017.2 |
| 20260502123020 | 21 | 117 | 8.0 | 16.1 | 0.00 | 0.00 | 0.00 | 72 | 1018.5 |
| 20260502121516 | 20 | 111 | 4.8 | 17.7 | 0.00 | 0.00 | 0.00 | 74 | 1018.6 |
| 20260502114512 | 20 | 135 | 12.9 | 20.9 | 0.00 | 0.00 | 0.00 | 73 | 1018.9 |
| 20260502113017 | 21 | 96 | 8.0 | 19.3 | 0.00 | 0.00 | 0.00 | 72 | 1019.1 |
| 20260502111509 | 21 | 88 | 9.7 | 16.1 | 0.00 | 0.00 | 0.00 | 72 | 1019.2 |
| 20260502110005 | 20 | 119 | 9.7 | 19.3 | 0.00 | 0.00 | 0.00 | 73 | 1019.3 |
| 20260502104516 | 20 | 115 | 8.0 | 17.7 | 0.00 | 0.00 | 0.00 | 73 | 1019.4 |
| 20260502103005 | 20 | 115 | 6.4 | 19.3 | 0.00 | 0.00 | 0.00 | 74 | 1019.5 |
| 20260502101501 | 20 | 124 | 14.5 | 22.5 | 0.00 | 0.00 | 0.00 | 74 | 1019.5 |
| 20260502100123 | 20 | 102 | 6.4 | 19.3 | 0.00 | 0.00 | 0.00 | 76 | 1019.7 |
| 20260502070029 | 17 | 100 | 0.0 | 1.6 | 0.00 | 0.00 | 0.00 | 83 | 1020.1 |
| 20260502064526 | 17 | 101 | 0.0 | 4.8 | 0.00 | 0.00 | 0.00 | 84 | 1020.1 |
| 20260502063023 | 17 | 117 | 0.0 | 0.0 | 0.00 | 0.00 | 0.00 | 84 | 1020.3 |
| 20260502061521 | 17 | 116 | 0.0 | 0.0 | 0.00 | 0.00 | 0.00 | 84 | 1020.2 |
| 20260502060018 | 17 | 116 | 0.0 | 1.6 | 0.00 | 0.00 | 0.00 | 84 | 1020.1 |
| 20260502054519 | 17 | 117 | 0.0 | 0.0 | 0.00 | 0.00 | 0.00 | 84 | 1019.9 |
| 20260502053015 | 17 | 116 | 0.0 | 0.0 | 0.00 | 0.00 | 0.00 | 84 | 1019.9 |
| 20260502051527 | 17 | 116 | 0.0 | 1.6 | 0.00 | 0.00 | 0.00 | 84 | 1019.8 |
| 20260502050111 | 17 | 117 | 0.0 | 0.0 | 0.00 | 0.00 | 0.00 | 84 | 1019.9 |
| 20260502044510 | 17 | 117 | 0.0 | 0.0 | 0.00 | 0.00 | 0.00 | 85 | 1019.9 |
| 20260502043009 | 17 | 116 | 0.0 | 3.2 | 0.00 | 0.00 | 0.00 | 85 | 1019.9 |
| 20260502041508 | 17 | 116 | 0.0 | 0.0 | 0.00 | 0.00 | 0.00 | 85 | 1020.0 |
| 20260502040008 | 17 | 116 | 0.0 | 0.0 | 0.00 | 0.00 | 0.00 | 86 | 1020.0 |
| 20260502034505 | 17 | 116 | 0.0 | 0.0 | 0.00 | 0.00 | 0.00 | 86 | 1020.3 |
| 20260502033004 | 17 | 117 | 0.0 | 0.0 | 0.00 | 0.00 | 0.00 | 86 | 1020.2 |
| 20260502031504 | 17 | 117 | 0.0 | 0.0 | 0.00 | 0.00 | 0.00 | 86 | 1020.3 |
| 20260502030003 | 17 | 117 | 0.0 | 0.0 | 0.00 | 0.00 | 0.00 | 86 | 1020.3 |
| 20260502024502 | 17 | 117 | 0.0 | 0.0 | 0.00 | 0.00 | 0.00 | 86 | 1020.3 |
| 20260502023002 | 17 | 117 | 0.0 | 3.2 | 0.00 | 0.00 | 0.00 | 86 | 1020.3 |
| 20260502021502 | 17 | 117 | 1.6 | 4.8 | 0.00 | 0.00 | 0.00 | 86 | 1020.1 |
| 20260502020111 | 17 | 114 | 3.2 | 6.4 | 0.00 | 0.00 | 0.00 | 86 | 1020.1 |
| 20260502014558 | 17 | 109 | 0.0 | 3.2 | 0.00 | 0.00 | 0.00 | 85 | 1020.4 |
| 20260502013100 | 17 | 109 | 0.0 | 4.8 | 0.00 | 0.00 | 0.00 | 85 | 1020.5 |
| 20260502011555 | 17 | 110 | 1.6 | 4.8 | 0.00 | 0.00 | 0.00 | 85 | 1020.6 |
| 20260502010056 | 17 | 108 | 1.6 | 6.4 | 0.00 | 0.00 | 0.00 | 85 | 1020.8 |
| 20260502004554 | 17 | 106 | 1.6 | 6.4 | 0.00 | 0.00 | 0.00 | 85 | 1020.8 |
| 20260502003050 | 17 | 113 | 0.0 | 4.8 | 0.00 | 0.00 | 0.00 | 86 | 1021.0 |
| 20260502001547 | 17 | 113 | 0.0 | 3.2 | 0.00 | 0.00 | 0.00 | 86 | 1021.3 |
| 20260502000045 | 17 | 114 | 0.0 | 4.8 | 0.00 | 0.00 | 0.00 | 86 | 1021.6 |
| 20260501234551 | 17 | 114 | 0.0 | 6.4 | 0.00 | 0.00 | 0.00 | 86 | 1021.7 |
| 20260501233042 | 17 | 115 | 1.6 | 9.7 | 0.00 | 0.00 | 0.00 | 86 | 1021.9 |
| 20260501231554 | 17 | 119 | 3.2 | 6.4 | 0.00 | 0.00 | 0.00 | 85 | 1022.0 |
| 20260501230039 | 17 | 117 | 3.2 | 6.4 | 0.00 | 0.00 | 0.00 | 85 | 1021.9 |